User: anonymous   Login
Location: Unspecified
(0.0000°N, 0.0000°E)
Time: 05:27:23
(UTC+00:00)
Language:

RISAT 1 - Orbit

View from above orbital plane
View from above orbital plane
View from above satellite
View from above satellite

Ground track
Ground track

The orbit data is extracted from the following two-line orbital elements,

1 38248U 12017A   14304.82084610  .00003235  00000-0  20889-3 0  8382
2 38248 097.5621 310.0424 0004848 113.4725 009.8374 15.08948198138565
Epoch (UTC): 31 October 2014 19:42:01
Eccentricity: 0.0004848
inclination: 97.5621°
perigee height: 536 km
apogee height: 543 km
right ascension of ascending node: 310.0424°
argument of perigee: 113.4725°
revolutions per day: 15.08948198
mean anomaly at epoch: 9.8374°
orbit number at epoch: 13856

The dashed part of the orbit path shows where the satellite is in the earth's shadow,  

DLR